When you browse on this site, cookies collect data to enhance your experience and personalize the content and advertising you see.
Visit our Privacy Policy to learn more. By continuing to use the site, you agree to this use of cookies and data.
  • Em Portugal
  • Lista de países
  • Para 7 dias
  • Temperatura da água
  • Mapas de satélite
  • Mapa do tempo
  • Widgets de tempo
  • user-avatar
    Iniciar Sessão

    Previsão horária em Luanda

    Hoje, 25 Março, Segunda-feira

    Tempo Temperatura Precipitação Vento Pressão Humidade
    00:00 +29°C° 0.8 mm 3 m/s 753 mmHg 87%
    01:00 +29°C° 0 mm 1 m/s 753 mmHg 88%
    02:00 +29°C° 0.8 mm 2 m/s 752 mmHg 89%
    03:00 +29°C° 0.8 mm 2 m/s 752 mmHg 89%
    04:00 +29°C° 0.8 mm 3 m/s 752 mmHg 90%
    05:00 +29°C° 1.1 mm 2 m/s 752 mmHg 89%
    06:00 +29°C° 1.1 mm 2 m/s 752 mmHg 88%
    07:00 +29°C° 0 mm 2 m/s 753 mmHg 87%
    08:00 +30°C° 0.2 mm 2 m/s 753 mmHg 82%
    09:00 +31°C° 0.2 mm 1 m/s 753 mmHg 76%
    10:00 +32°C° 0.2 mm 1 m/s 753 mmHg 70%
    11:00 +34°C° 0 mm 3 m/s 753 mmHg 67%
    12:00 +35°C° 0 mm 4 m/s 753 mmHg 65%
    13:00 +35°C° 0 mm 4 m/s 752 mmHg 63%
    14:00 +34°C° 0.2 mm 5 m/s 752 mmHg 66%
    15:00 +34°C° 0.2 mm 5 m/s 751 mmHg 69%
    16:00 +33°C° 0.2 mm 5 m/s 751 mmHg 72%
    17:00 +32°C° 0.5 mm 4 m/s 751 mmHg 77%
    18:00 +30°C° 0.5 mm 4 m/s 752 mmHg 81%
    19:00 +29°C° 0.5 mm 3 m/s 752 mmHg 86%
    20:00 +29°C° 0.6 mm 3 m/s 753 mmHg 87%
    21:00 +29°C° 0.6 mm 3 m/s 753 mmHg 88%
    22:00 +29°C° 0.6 mm 3 m/s 754 mmHg 90%
    23:00 +29°C° 0.1 mm 3 m/s 753 mmHg 90%

    Amanhã, 26 Março, Terça-feira

    Tempo Temperatura Precipitação Vento Pressão Humidade
    00:00 +28°C° 0.1 mm 3 m/s 753 mmHg 90%
    01:00 +28°C° 0.1 mm 3 m/s 753 mmHg 91%
    02:00 +28°C° 0 mm 3 m/s 753 mmHg 91%
    03:00 +28°C° 0 mm 4 m/s 753 mmHg 92%
    04:00 +28°C° 0 mm 4 m/s 752 mmHg 92%
    05:00 +28°C° 0.1 mm 3 m/s 753 mmHg 91%
    06:00 +28°C° 0.1 mm 3 m/s 753 mmHg 90%
    07:00 +28°C° 0.1 mm 3 m/s 753 mmHg 89%
    08:00 +30°C° 0.7 mm 3 m/s 754 mmHg 82%
    09:00 +31°C° 0.7 mm 2 m/s 754 mmHg 75%
    10:00 +32°C° 0.7 mm 2 m/s 755 mmHg 68%
    11:00 +32°C° 0.4 mm 2 m/s 754 mmHg 67%
    12:00 +34°C° 0.4 mm 3 m/s 754 mmHg 66%
    13:00 +34°C° 0.4 mm 4 m/s 753 mmHg 65%
    14:00 +34°C° 0 mm 4 m/s 753 mmHg 67%
    15:00 +33°C° 0 mm 4 m/s 752 mmHg 69%
    16:00 +33°C° 0 mm 5 m/s 752 mmHg 70%
    17:00 +32°C° 0 mm 4 m/s 752 mmHg 74%
    18:00 +30°C° 0 mm 4 m/s 752 mmHg 77%
    19:00 +29°C° 0 mm 3 m/s 753 mmHg 80%
    20:00 +29°C° 0 mm 3 m/s 753 mmHg 81%
    21:00 +29°C° 0 mm 3 m/s 754 mmHg 82%
    22:00 +29°C° 0 mm 2 m/s 754 mmHg 83%
    23:00 +29°C° 0 mm 2 m/s 754 mmHg 84%

    Depois de amanhã, 27 Março, Quarta-feira

    Tempo Temperatura Precipitação Vento Pressão Humidade
    00:00 +28°C° 0 mm 2 m/s 754 mmHg 84%
    01:00 +28°C° 0 mm 2 m/s 753 mmHg 85%
    02:00 +28°C° 0 mm 2 m/s 753 mmHg 86%
    03:00 +28°C° 0 mm 2 m/s 753 mmHg 87%
    04:00 +27°C° 0 mm 3 m/s 752 mmHg 88%
    05:00 +27°C° 0 mm 3 m/s 753 mmHg 88%
    06:00 +27°C° 0 mm 3 m/s 753 mmHg 88%
    07:00 +27°C° 0 mm 3 m/s 753 mmHg 88%
    08:00 +29°C° 0 mm 3 m/s 754 mmHg 81%
    09:00 +30°C° 0 mm 2 m/s 754 mmHg 75%
    10:00 +31°C° 0 mm 2 m/s 754 mmHg 69%
    11:00 +34°C° 0 mm 2 m/s 754 mmHg 64%
    12:00 +35°C° 0 mm 2 m/s 753 mmHg 60%
    13:00 +35°C° 0 mm 1 m/s 752 mmHg 55%
    14:00 +36°C° 0 mm 3 m/s 752 mmHg 56%
    15:00 +36°C° 0 mm 4 m/s 751 mmHg 56%
    16:00 +36°C° 0 mm 5 m/s 751 mmHg 57%
    17:00 +34°C° 0 mm 5 m/s 751 mmHg 65%
    18:00 +32°C° 0 mm 5 m/s 752 mmHg 73%
    19:00 +30°C° 0 mm 4 m/s 752 mmHg 81%
    20:00 +30°C° 0 mm 4 m/s 753 mmHg 81%
    21:00 +29°C° 0 mm 4 m/s 753 mmHg 82%
    22:00 +29°C° 0 mm 4 m/s 754 mmHg 82%
    23:00 +29°C° 0 mm 3 m/s 754 mmHg 83%

    28 Março, Quinta-feira

    Tempo Temperatura Precipitação Vento Pressão Humidade
    00:00 +29°C° 0 mm 3 m/s 753 mmHg 84%
    01:00 +29°C° 0 mm 3 m/s 753 mmHg 85%
    02:00 +29°C° 0 mm 3 m/s 753 mmHg 86%
    03:00 +29°C° 0 mm 3 m/s 753 mmHg 87%
    04:00 +28°C° 0 mm 3 m/s 753 mmHg 88%
    05:00 +28°C° 0 mm 3 m/s 753 mmHg 88%
    06:00 +28°C° 0 mm 3 m/s 754 mmHg 88%
    07:00 +28°C° 0 mm 3 m/s 754 mmHg 88%
    08:00 +29°C° 0 mm 3 m/s 754 mmHg 84%
    09:00 +30°C° 0 mm 2 m/s 754 mmHg 79%
    10:00 +31°C° 0 mm 2 m/s 754 mmHg 75%
    11:00 +32°C° 0 mm 2 m/s 754 mmHg 69%
    12:00 +34°C° 0 mm 1 m/s 753 mmHg 64%
    13:00 +35°C° 0 mm 1 m/s 752 mmHg 58%
    14:00 +36°C° 0 mm 2 m/s 751 mmHg 59%
    15:00 +36°C° 0 mm 4 m/s 751 mmHg 60%
    16:00 +36°C° 0 mm 5 m/s 750 mmHg 61%
    17:00 +34°C° 0.3 mm 4 m/s 751 mmHg 69%
    18:00 +32°C° 0.3 mm 4 m/s 752 mmHg 77%
    19:00 +30°C° 0.3 mm 3 m/s 752 mmHg 85%
    20:00 +30°C° 0.1 mm 3 m/s 753 mmHg 86%
    21:00 +29°C° 0.1 mm 3 m/s 753 mmHg 86%
    22:00 +29°C° 0.1 mm 3 m/s 754 mmHg 86%
    23:00 +29°C° 0 mm 3 m/s 753 mmHg 86%

    29 Março, Sexta-feira

    Tempo Temperatura Precipitação Vento Pressão Humidade
    00:00 +29°C° 0 mm 2 m/s 753 mmHg 87%
    01:00 +29°C° 0 mm 2 m/s 752 mmHg 87%
    02:00 +29°C° 0 mm 2 m/s 752 mmHg 87%
    03:00 +28°C° 0 mm 2 m/s 752 mmHg 88%
    04:00 +28°C° 0 mm 1 m/s 752 mmHg 88%
    05:00 +28°C° 0 mm 2 m/s 752 mmHg 88%
    06:00 +28°C° 0 mm 2 m/s 753 mmHg 88%
    07:00 +28°C° 0 mm 3 m/s 753 mmHg 88%
    08:00 +29°C° 0 mm 3 m/s 753 mmHg 83%
    09:00 +30°C° 0 mm 2 m/s 753 mmHg 78%
    10:00 +31°C° 0 mm 2 m/s 753 mmHg 73%
    11:00 +34°C° 0 mm 2 m/s 752 mmHg 66%
    12:00 +34°C° 0 mm 1 m/s 751 mmHg 59%
    13:00 +36°C° 0 mm 1 m/s 750 mmHg 52%
    14:00 +37°C° 0 mm 2 m/s 750 mmHg 53%
    15:00 +37°C° 0 mm 4 m/s 750 mmHg 54%
    16:00 +38°C° 0 mm 6 m/s 749 mmHg 56%
    17:00 +35°C° 0 mm 5 m/s 750 mmHg 64%
    18:00 +33°C° 0 mm 4 m/s 751 mmHg 73%
    19:00 +30°C° 0 mm 4 m/s 752 mmHg 82%
    20:00 +30°C° 1.5 mm 3 m/s 752 mmHg 82%
    21:00 +30°C° 1.5 mm 3 m/s 753 mmHg 83%
    22:00 +30°C° 1.5 mm 2 m/s 753 mmHg 84%
    23:00 +30°C° 0 mm 2 m/s 753 mmHg 85%

    30 Março, Sábado

    Tempo Temperatura Precipitação Vento Pressão Humidade
    00:00 +29°C° 0 mm 2 m/s 752 mmHg 85%
    01:00 +29°C° 0 mm 2 m/s 752 mmHg 86%
    02:00 +29°C° 0 mm 2 m/s 752 mmHg 87%
    03:00 +29°C° 0 mm 1 m/s 751 mmHg 88%
    04:00 +29°C° 0 mm 1 m/s 751 mmHg 89%
    05:00 +29°C° 0 mm 1 m/s 752 mmHg 89%
    06:00 +29°C° 0 mm 2 m/s 752 mmHg 89%
    07:00 +28°C° 0 mm 2 m/s 753 mmHg 89%
    08:00 +30°C° 0 mm 2 m/s 753 mmHg 82%
    09:00 +31°C° 0 mm 3 m/s 753 mmHg 76%
    10:00 +34°C° 0 mm 3 m/s 753 mmHg 69%
    11:00 +35°C° 0 mm 2 m/s 752 mmHg 64%
    12:00 +36°C° 0 mm 2 m/s 752 mmHg 59%
    13:00 +36°C° 0 mm 1 m/s 751 mmHg 54%
    14:00 +37°C° 0 mm 2 m/s 750 mmHg 56%
    15:00 +36°C° 0 mm 3 m/s 750 mmHg 58%
    16:00 +36°C° 0 mm 4 m/s 750 mmHg 60%
    17:00 +34°C° 0.2 mm 4 m/s 750 mmHg 66%
    18:00 +33°C° 0.2 mm 5 m/s 751 mmHg 73%
    19:00 +32°C° 0.2 mm 5 m/s 751 mmHg 79%
    20:00 +30°C° 0.1 mm 4 m/s 752 mmHg 80%
    21:00 +30°C° 0.1 mm 4 m/s 752 mmHg 81%
    22:00 +30°C° 0.1 mm 3 m/s 753 mmHg 82%
    23:00 +29°C° 0 mm 4 m/s 752 mmHg 83%
    Mostrar mais